Regional Weather Roundup
Issued by NWS

Home | Current Version | Previous Version | Text Only | Print | Product List | Glossary Off
Versions: 1 2 3 4 5 6 7 8 9 10 11 12 13 14 15 16 17 18 19 20 21 22 23 24 25 26 27 28 29 30 31 32 33 34 35 36 37 38 39 40 41 42 43 44 45 46 47 48 49 50

586
ASUS43 KDMX 291708
RWRIA

WEATHER ROUNDUP FOR IOWA
NATIONAL WEATHER SERVICE DES MOINES IA
1200 PM CDT MON AUG 29 2016

NOTE: "FAIR" INDICATES FEW OR NO CLOUDS BELOW 12,000 FEET WITH NO
SIGNIFICANT WEATHER AND/OR OBSTRUCTIONS TO VISIBILITY.

* - THESE STATIONS ARE NOT NWS STATIONS...THUS NOT UNDER NWS
QUALITY CONTROL.  THEY ALSO DO NOT REPORT WEATHER SUCH
AS PRECIPITATION OR FOG.

IAZ001>003-012>014-020>022-031>034-043>046-291800-
   NORTHWEST IOWA

CITY           SKY/WX    TMP DP  RH WIND       PRES   REMARKS
CARROLL *      PTSUNNY   73  72  94 CALM      30.24R
CHEROKEE *     CLOUDY    76  71  84 S3        30.23S
DENISON *      CLOUDY    73  70  88 E3        30.21S
LE MARS *      MOSUNNY   77  70  78 S8        30.23R
ORANGE CITY *  CLOUDY    75  70  83 S7        30.24R
SHELDON *      CLOUDY    77  72  83 VRB6      30.22R
SIOUX CITY     PTSUNNY   76  69  79 SE3       30.22R
SPENCER        CLOUDY    81  67  62 SW5       30.23S HX  83
STORM LAKE *   CLOUDY    75  72  88 CALM      30.24S
$$

IAZ055>058-069>071-079>083-090>094-291800-
   SOUTHWEST IOWA

CITY           SKY/WX    TMP DP  RH WIND       PRES   REMARKS
ATLANTIC *     PTSUNNY   79  70  73 CALM      30.22S HX  81
AUDUBON *      MOSUNNY   77  72  83 CALM      30.24S
CLARINDA *       N/A     82  75  78 MISG      30.23S HX  89
COUNCIL BLFS * CLOUDY    77  72  83 CALM      30.22R
CRESTON *      PTSUNNY   79  73  83 CALM      30.24S HX  82
HARLAN  *      CLOUDY    79  73  83 S5        30.26R HX  82
LAMONI         SUNNY     84  74  71 S5        30.22S HX  91
RED OAK *      PTSUNNY   82  75  78 SE3       30.21S HX  89
SHENANDOAH *   CLOUDY    82 -29   1 SE3       30.21S
$$

IAZ047>049-059>061-072>074-084-291800-
   CENTRAL IOWA

CITY           SKY/WX    TMP DP  RH WIND       PRES   REMARKS
AMES           MOSUNNY   75  75 100 SE6       30.24R
ANKENY *         N/A    N/A N/A N/A MISG        N/A
BOONE *        MOSUNNY   75  73  94 SE5       30.23S
CHARITON *       N/A     81  75  83 MISG      30.23S HX  86
DES MOINES     CLOUDY    79  73  82 E6        30.22S HX  82
GRINNELL*      RAIN      74  71  91 SE5       30.26R
KNOXVILLE *    PTSUNNY   73  72  94 NE5       30.22F
MARSHALLTOWN   PTSUNNY   76  73  91 SE3       30.24R
NEWTON *       PTSUNNY   75  75 100 S6        30.24R FOG
PERRY *          N/A     77  75  94 E3        30.23S
$$

IAZ004>006-015-016-023>025-035-036-291800-
   NORTH CENTRAL IOWA

CITY           SKY/WX    TMP DP  RH WIND       PRES   REMARKS
ALGONA *       CLOUDY    81  72  74 S9        30.24S HX  84
ESTHERVILLE    PTSUNNY   79  73  82 SE8       30.23F HX  82
FORT DODGE *   CLOUDY    79  72  78 S3        30.24S HX  82
MASON CITY     CLOUDY    81  71  71 S6        30.25F HX  85
FOREST CITY *    N/A    N/A N/A N/A MISG        N/A
WEBSTER CITY * MOSUNNY   77  73  88 SE6       30.22S
IOWA FALLS *     N/A     80  73  78 SE3       30.26S HX  84
$$

IAZ007>011-017>019-026>030-037>042-050>054-066-291800-
   NORTHEAST IOWA

CITY           SKY/WX    TMP DP  RH WIND       PRES   REMARKS
CEDAR RAPIDS   CLOUDY    77  74  90 SE3       30.24S
CHARLES CITY * CLOUDY    79  75  89 SE5       30.26S HX  82
CLINTON *      MOSUNNY   81  75  82 VRB3      30.25S HX  87
DECORAH *      PTSUNNY   79  72  78 SW3       30.26R HX  82
DUBUQUE        CLOUDY    79  72  79 NE3       30.27S HX  82
MONTICELLO *   PTSUNNY   82  73  74 N3        30.24F HX  88
OELWEIN *      MOSUNNY   75  72  88 CALM      30.27S
WATERLOO       LGT RAIN  74  70  87 E3        30.24S
$$

IAZ064-065-067-068-078-291800-
   EAST CENTRAL IOWA

CITY           SKY/WX    TMP DP  RH WIND       PRES   REMARKS
DAVENPORT      MOSUNNY   83  74  74 MISG      30.24S HX  89
IOWA CITY      LGT RAIN  77  72  84 E3        30.25R
MT. PLEASANT * SUNNY     88  75  63 CALM      30.23S HX  98
QUAD CITIES    SUNNY     84  73  69 E7        30.23S HX  90
$$

IAZ062-063-075>077-085>089-095>099-291800-
   SOUTHEAST IOWA

CITY           SKY/WX    TMP DP  RH WIND       PRES   REMARKS
BURLINGTON     SUNNY     84  76  76 S3        30.22S HX  93
FAIRFIELD *    MOSUNNY   84  72  65 CALM      30.23S HX  89
FORT MADISON *   N/A     84  75  74 CALM      30.23S HX  92
KEOKUK *       SUNNY     86  77  74 VRB3      30.22R HX  97
OSKALOOSA *      N/A     82  73  76 CALM      30.23F HX  87
CENTERVILLE *    N/A     84  75  74 CALM      30.24S HX  92
OTTUMWA        MOSUNNY   84  71  65 CALM      30.23S HX  89
WASHINGTON *   CLOUDY    82  75  78 CALM      30.25R HX  89
$$

ABBREVIATIONS USED IN REMARKS
   TC - TEMPERATURES IN CELSIUS
  WCI - WIND CHILL INDEX
   HX - HEAT INDEX
  VSB - VISIBILITY
$$





USA.gov is the U.S. government's official web portal to all federal, state and local government web resources and services.